Location: Blankensee
(53.5126°N, 14.3055°E)
Time: 18:59:52
(UTC+00:00)

Meteor 2-5 Rocket - Pass Details

Date: 08 August 2020
Orbit: 832 x 912 km, 81.2° (Epoch: 20 September)

Event Time Altitude Azimuth Distance (km) Brightness Sun altitude
Rises 00:10:25 0° 348° (NNW) 3,467 8.0 -19.2°
Reaches altitude 10° 00:12:58 10° 353° (N) 2,514 7.2 -19.1°
Maximum altitude 00:18:31 52° 70° (ENE) 1,056 4.4 -18.8°
Enters shadow 00:23:14 14° 144° (SE) 2,204 5.5 -18.6°
